Weather Roundup
Issued by NWS Corpus Christi, TX

Home | Current Version | Previous Version | Text Only | Print | Product List | Glossary On
Versions: 1 2 3 4 5 6 7 8 9 10 11 12 13 14 15 16 17 18 19 20 21 22 23 24 25 26 27 28 29 30 31 32 33 34 35 36 37 38 39 40 41 42 43 44 45 46 47 48 49 50
000
ASUS44 KCRP 210910
HRRCRP

SOUTH TEXAS REGIONAL WEATHER ROUNDUP
NATIONAL WEATHER SERVICE CORPUS CHRISTI TX
400 AM CDT TUE APR 21 2015


TXZ229>244-211000-
...CORPUS CHRISTI AREA OBSERVATIONS...

CITY           SKY/WX    TMP DP  RH WIND       PRES   REMARKS
CORPUS CHRISTI CLOUDY    63  59  87 SE6       29.94F
NAS CORPUS CHR CLOUDY    66 N/A N/A SE8       29.94F
ROCKPORT       CLOUDY    65  57  75 E7        29.94F
KINGSVILLE NAS CLOUDY    62  60  93 E6        29.93F
ALICE          MOCLDY    61  55  81 SE9       29.91F
FALFURRIAS     MOCLDY    62  57  84 E3        29.93F
$$

...VICTORIA AREA OBSERVATIONS...

CITY           SKY/WX    TMP DP  RH WIND       PRES   REMARKS
VICTORIA       CLOUDY    62  57  83 SE7       29.94F
BEEVILLE       FAIR      61  58  91 E5        29.91F
PLEASANTON     PTCLDY    57  51  82 NW5       29.97R
SAN ANTONIO    PTCLDY    55  49  80 NW5       29.98R
$$

...LAREDO AREA OBSERVATIONS...

CITY           SKY/WX    TMP DP  RH WIND       PRES   REMARKS
LAREDO         MOCLDY    62  54  75 CALM      29.95R
COTULLA        MOCLDY    59  52  77 SE5       29.95F
DEL RIO        CLOUDY    60  48  64 E8        29.93F
MCALLEN        LGT RAIN  66  60  81 NE6       29.93F
HEBBRONVILLE     N/A     59  55  87 SE7       29.92F
$$

...OTHER TEXAS OBSERVATIONS...

CITY           SKY/WX    TMP DP  RH WIND       PRES   REMARKS
BROWNSVILLE    CLOUDY    70  67  90 NE6       29.92F
HOUSTON        CLOUDY    59  53  80 E3        29.97S
COL. STATION   CLEAR     57  50  77 N5        29.99R
AUSTIN         CLEAR     49  48  97 CALM      29.98F
WACO           PTCLDY    52  49  89 CALM      30.00F
FORT WORTH     PTCLDY    54  44  69 CALM      30.00R
WICHITA FALLS  CLOUDY    55  42  61 S12       29.97F
LUBBOCK        CLEAR     48  39  71 SE6       29.92S
EL PASO        CLEAR     63  22  20 SW8       29.90S
$$

...MARINE OBSERVATIONS...

STATION/POSITION TIME  SKY/WX   TEMP    WIND        PRES    VSBY  WAVE   SWELL
                                AIR SEA DIR/SP/G                  HT/PER HT/PER
                 (UTC)          (F)     (DEG/KT/KT) (MB)    (MI)  (FT/S) (FT/S)
PORT ARANSAS     0900            70 72   80/ 12/ 13 1014.3F
BUOY 90 E PORT A 0850            71 74   70/  8/ 10 1014.7F         3/ 5   3/ 5
BUOY 45 SE BAFFI 0850            72 74   70/ 10/ 12 1013.2F         4/ 6   3/ 6
BUOY 200 E PT IS 0850            77 77   70/  6/ 10 1012.3F         4/ 7   3/ 7
BUOY 15 E GALVES 0850            70 72   80/ 10/ 12 1013.8F         2/ 3   2/ 7
$$


USA.gov is the U.S. government's official web portal to all federal, state and local government web resources and services.